Satellite-Ground Cal/Val Region Overpasses Predictions

Prediction of Satellite NPP Overpassing Cal/Val Region: PacNW

Region Location: (Latitude: 10.00, Longitude: 139.50) to (Latitude: 22.70, Longitude: 165.60).

Table of predicted overpasses for the next 14.0 days since TLE Epoch: 7/4/2016
Interval Starting Time Starting Location Ending Time Ending Location
1 07/04/2016 14:46:43 ( 22.68, 163.45) 07/04/2016 14:50:18 ( 10.06, 160.45)
2 07/05/2016 03:37:18 ( 10.01, 145.61) 07/05/2016 03:40:54 ( 22.69, 142.59)
3 07/05/2016 14:30:47 ( 11.72, 165.59) 07/05/2016 14:31:16 ( 10.01, 165.20)
4 07/05/2016 16:09:10 ( 22.69, 142.84) 07/05/2016 16:12:46 ( 10.01, 139.82)
5 07/06/2016 03:18:16 ( 10.05, 150.36) 07/06/2016 03:21:51 ( 22.67, 147.35)
6 07/06/2016 15:50:09 ( 22.64, 147.58) 07/06/2016 15:53:44 ( 10.02, 144.58)
7 07/07/2016 02:59:14 ( 10.03, 155.12) 07/07/2016 03:02:49 ( 22.66, 152.12)
8 07/07/2016 15:31:06 ( 22.66, 152.35) 07/07/2016 15:34:41 ( 10.04, 149.35)
9 07/08/2016 02:40:11 ( 10.02, 159.88) 07/08/2016 02:43:47 ( 22.70, 156.86)
10 07/08/2016 15:12:04 ( 22.68, 157.11) 07/08/2016 15:15:39 ( 10.06, 154.11)
11 07/09/2016 02:21:09 ( 10.00, 164.64) 07/09/2016 02:24:45 ( 22.68, 161.63)
12 07/09/2016 14:53:01 ( 22.69, 161.87) 07/09/2016 14:56:37 ( 10.01, 158.86)
13 07/10/2016 03:43:37 ( 10.05, 144.01) 07/10/2016 03:47:12 ( 22.68, 141.01)
14 07/10/2016 14:35:11 ( 18.48, 165.60) 07/10/2016 14:37:35 ( 10.03, 163.62)
15 07/10/2016 16:15:29 ( 22.70, 141.26) 07/10/2016 16:17:32 ( 15.48, 139.51)
16 07/11/2016 03:24:35 ( 10.04, 148.78) 07/11/2016 03:28:10 ( 22.66, 145.77)
17 07/11/2016 15:56:28 ( 22.66, 146.00) 07/11/2016 16:00:03 ( 10.04, 143.00)
18 07/12/2016 03:05:32 ( 10.02, 153.54) 07/12/2016 03:09:07 ( 22.65, 150.54)
19 07/12/2016 15:37:25 ( 22.67, 150.77) 07/12/2016 15:41:00 ( 10.05, 147.77)
20 07/13/2016 02:46:30 ( 10.01, 158.30) 07/13/2016 02:50:06 ( 22.69, 155.28)
21 07/13/2016 15:18:23 ( 22.68, 155.53) 07/13/2016 15:21:59 ( 10.01, 152.51)
22 07/14/2016 02:27:28 ( 10.06, 163.05) 07/14/2016 02:31:03 ( 22.68, 160.04)
23
